Погода в Черном Отроге

Россия / Оренбургская область     51°53′04″N   56°00′03″E
темп.,
°C
ветер,
м/с
пор.,
м/с
влажн.,
%
обл.,
%
осадки,
мм/ч
давл.,
гПа
погр.,
м
18 октября, пн
пн1823:00+11ююв3345100 0.0 102037
02:00+11ююв3544100 0.0 102090
05:00+9ююв354597 0.0 101990
08:00+8юв3449100 0.0 101975
11:00+12ю51037100 0.0 1018445
14:00+15ю6929100 0.0 1017795
17:00+15ю5926100 0.0 1015586
20:00+12ююв3932100 0.0 1015197
19 октября, вт
вт1923:00+11ююв3934100 0.0 1015194
02:00+10ююв3735100 0.0 1014154
05:00+9ю2241100 0.0 101329
08:00+9юв3645100 0.0 1012162
11:00+10ююв4947100 0.0 1012385
14:00+13ююв573147 0.0 1010675
17:00+14ююз243263 0.0 1009527
20:00+9ююв224689 0.0 100913
20 октября, ср
ср2023:00+8ююв125361 0.0 100810
02:00+9ю1156100 0.0 100810
05:00+9ююв1156100 0.0 100710
08:00+8ююв1162100 0.0 100616
11:00+9юз0163100 0.0 1005308
14:00+7с5679100 0.9 1004425
17:00+5ссз6789100 5.4 1004700
20:00+2ссз71595100 5.2 1004725
21 октября, чт
чт2123:00+1ссз101896100 10.7 10041002
02:00+1сз121994100 4.1 10041024
05:00+1сз121984100 5.6 10061086
08:000сз121986100 1.5 1007975
11:000сз111778100 1.6 1010951
14:00+3сз9156791 0.0 10111057
17:00+3сз813575 0.0 1013681
20:00+1зсз612620 0.0 1015332
22 октября, пт
пт2223:00−1з2672100 0.0 1016105
02:00−1юз2274100 0.0 101535
05:000юз4897100 0.1 1014335
08:00+1ююз51199100 1.8 1013500
11:00+2ююз51196100 2.0 1012425
14:00+4юз61395100 1.8 1012476
17:00+8юз61272100 1.8 1010354
20:00+9зюз71662100 0.0 1011510